Regional Weather Roundup
Issued by NWS Wakefield, VA

Home | Current Version | Previous Version | Graphics & Text | Print | Product List | Glossary On
Versions: 1 2 3 4 5 6 7 8 9 10 11 12 13 14 15 16 17 18 19 20 21 22 23 24 25 26 27 28 29 30 31 32 33 34 35 36 37 38 39 40 41 42 43 44 45 46 47
000
ASUS41 KAKQ 291813
RWRAKQ

REGIONAL WEATHER ROUNDUP
NATIONAL WEATHER SERVICE WAKEFIELD VA
200 PM EDT SAT AUG 29 2015

Note: "fair" indicates few or no clouds below 12,000 feet with no
significant weather and/or obstructions to visibility. * = Denotes
station may not report precipitation (e.g., rain,snow,etc.),
thunder or fog.

VAZ042-051-052>054-056-291900-
NORTHERN VIRGINIA

CITY           SKY/WX    TMP DP  RH WIND       PRES   REMARKS
WASH NATIONAL  PTSUNNY   87  62  43 S13       30.16F
DULLES         PTSUNNY   85  63  47 VRB3      30.16F
FORT BELVOIR   SUNNY     85  62  45 S9        30.16F
QUANTICO       SUNNY     82  65  56 S13       30.16F
FREDERICKSBRG* SUNNY     89  62  41 S12       30.15F
STAFFORD*      SUNNY     85  58  39 SW8       30.20F
WARRENTON      SUNNY     87  64  46 S5        30.16F
CULPEPER*      SUNNY     85  64  49 S5        30.16F
MANASSAS*      SUNNY     84  64  51 SW6       30.16F
LEESBURG*      SUNNY     86  68  54 SE5       30.16F
WINCHESTER     CLOUDY    86  57  37 N6        30.15F
FRONT ROYAL*   MOCLDY    82  66  57 E6G16     30.14F
LURAY*         CLOUDY    84  55  37 CALM      30.16F
$$

VAZ048-049-060>072-079>083-291900-
CENTRAL AND SOUTH CENTRAL VIRGINIA

CITY           SKY/WX    TMP DP  RH WIND       PRES   REMARKS
RICHMOND       PTSUNNY   87  59  38 W6        30.18F
CHESTERFIELD*  FAIR      84  57  39 SW6       30.20F
PETERSBURG*    SUNNY     86  65  49 CALM      30.19F
HANOVER        SUNNY     85  60  42 S6        30.20F
TAPPAHANNOCK*  SUNNY     86  56  35 SW6       30.19F
QUINTON*       FAIR      83  63  50 CALM      30.18F
CHARLOTTSVILLE MOSUNNY   85  64  49 S10       30.17F
GORDONSVILLE*  FAIR      85  64  47 SW9       30.16F
ORANGE*        SUNNY     88  63  42 SW8       30.18F
LOUISA*        SUNNY     88  63  42 S8        30.17F
BUMPASS*       FAIR      85  62  45 SW5       30.17F
FARMVILLE*     MOSUNNY   87  55  33 SW7       30.17F
CREWE*         FAIR     N/A N/A N/A W3        30.20F
FORT PICKETT*  FAIR      84  61  45 S6        30.20F
CHASE CITY*    MOCLDY    86  63  46 S3        30.20F
CLARKSVILLE*   FAIR      82  61  47 CALM      30.21F
SOUTH HILL*    MOSUNNY   82  61  49 CALM      30.26F
LAWRENCEVILLE* FAIR      82  63  51 CALM      30.20F
EMPORIA*       FAIR      82  61  47 E5        30.20F
$$

VAZ088>098-291900-
SOUTHEAST VIRGINIA

CITY           SKY/WX    TMP DP  RH WIND       PRES   REMARKS
NORFOLK        SUNNY     82  56  40 E10       30.20F
VIRGINIA BEACH PTSUNNY   83  61  47 NE10      30.19F
NORFOLK NAVAL  PTSUNNY   82  60  47 NE12      30.21F
WEST POINT*    SUNNY     87  56  34 S3        30.20F
SALUDA*        FAIR      80  63  55 E7        30.19F
NEWPORT NEWS   SUNNY     84  59  42 NE9       30.19F
LANGLEY AFB    MOSUNNY   83  62  49 SE9       30.19F
FORT EUSTIS    SUNNY     84  61  45 S9        30.18F
WILLIAMSBURG*  SUNNY     90  63  40 CALM      30.20F
HR EXEC AP*      N/A     86  61  42 NE6       30.21S
FRANKLIN*      MOSUNNY   85  60  42 E6        30.19F
WAKEFIELD      SUNNY     86  60  41 NE5       30.19F
$$

VAZ020-022-025-037-045-291900-
WEST CENTRAL AND SOUTHWEST VIRGINIA

CITY           SKY/WX    TMP DP  RH WIND       PRES   REMARKS
STAUNTON*      PTSUNNY   89  55  30 SW8       30.20F
WAYNESBORO*    MOCLDY    83  62  47 S5        30.20F
HOT SPRINGS VA MOSUNNY   75  53  46 W7        30.31F
LYNCHBURG      MOSUNNY   83  58  42 SW6       30.21F
DANVILLE       CLOUDY    82  62  50 VRB3      30.21F
SOUTH BOSTON*  FAIR      84  59  41 SE6       30.20F
MARTINSVILLE   CLOUDY    83  60  45 S3        30.24F
ROANOKE        PTSUNNY   83  60  45 S3        30.22F
BLACKSBURG     MOSUNNY   81  63  54 SW5       30.29F
DUBLIN*        PTSUNNY   81  61  51 S6        30.27F
MARION*        CLOUDY    77  61  57 CALM      30.30F
HILLSVILLE*    CLOUDY    75  59  57 CALM      30.29F
RICHLANDS*     FAIR      78  19  11 NW3       30.28F
WISE*          MOSUNNY   79  54  41 CALM      30.30S
ABINGDON*      CLOUDY    78  57  47 CALM      30.26F
$$

MDZ021>025-VAZ099-100-291900-
SOUTHERN MARYLAND AND THE DELMARVA PENINSULA

CITY           SKY/WX    TMP DP  RH WIND       PRES   REMARKS
PATUXENT RIVER PTSUNNY   81  67  62 SE13      30.17F
BAY BRIDGE APT   N/A     81  59  47 SE12      30.17F
LEONARDTOWN    SUNNY     82  59  44 SW6       30.19F
DOVER          MOSUNNY   81  67  62 E10       30.16F
GEORGETOWN     CLOUDY    84  59  42 VRB6      30.18F
EASTON         MOSUNNY   84  63  48 W6        30.21F
CAMBRIDGE      SUNNY     82  61  47 S6        30.18F
SALISBURY      MOSUNNY   83  60  45 S5        30.18F
OCEAN CITY     SUNNY     80  59  48 VRB7      30.20F
WALLOPS ISLAND SUNNY     81  60  48 SE9       30.20F
ACCOMACK*      SUNNY     81  41  24 SE8       30.19F
$$

NCZ012>017-030>032-291900-
NORTH CENTRAL AND EASTERN NORTH CAROLINA

CITY           SKY/WX    TMP DP  RH WIND       PRES   REMARKS
ROANOKE RAPIDS FAIR      82  59  44 E3        30.19F
RALEIGH        PTSUNNY   84  59  42 VRB3      30.21F
ELIZABETH CITY MOSUNNY   82  62  50 NE13      30.19S
AHOSKIE*       PTSUNNY   82  60  47 NE7       30.19F
EDENTON*       MOSUNNY   82  60  45 NE10G17   30.19S
CURRITUCK*     MOSUNNY   81  58  45 E9        30.20S
KILL DEVIL HLS CLOUDY    82  66  59 NE7       30.18S
MANTEO         CLOUDY    79  68  68 NE16      30.18F
CAPE HATTERAS  PTSUNNY   81  70  69 NE13G22   30.15S
TARBORO*       FAIR      87  57  35 E6        30.19F
GOLDSBORO      CLOUDY    83  60  44 N9        30.18F
WASHINGTON     PTSUNNY   83  60  45 NE9       30.18F
GREENVILLE     PTSUNNY   84  61  45 NE6       30.20F
NEW BERN       PTSUNNY   84  65  52 N9        30.18F
WILMINGTON     CLOUDY    83  67  58 N8        30.17S
$$

VAZ048-291900-
ELSEWHERE

CITY           SKY/WX    TMP DP  RH WIND       PRES   REMARKS
HARRISBURG PA  MOSUNNY   82  62  50 W3        30.14F
BALTIMORE      PTSUNNY   85  60  42 VRB7      30.15F
ANNAPOLIS      SUNNY     80  65  59 SE16      30.16F
ANDREWS AFB    SUNNY     87  60  40 VRB5      30.15F
PHILADELPHIA   MOSUNNY   85  57  38 SW8       30.17F
HENDERSON NC   PTSUNNY   83  54  37 SE5       30.21F
GREENSBORO     CLOUDY    82  59  45 CALM      30.22F
ROCKY MOUNT    CLOUDY    88  57  34 E8        30.19F
$$

VAZ100-291900-
MARINE

STATION/POSITION TIME  TEMP    WIND        PRES    WAVE   SWELL
                       AIR SEA DIR/SP/G            HT/PER HT/PER
                 (UTC) (F)     (DEG/KT/KT) (MB)    (FT/S) (FT/S)
15NM E FENWICK I 1750   76 82  190/  2/  4 1023.0F   3/11   3/11
THOMAS POINT MD  1700          170/ 13       N/A
GOOSES REEF MD   1800   78 79  170/ 16/ 17 1022.6F
POTOMAC MD       1800   78 80  150/ 12/ 14 1021.2F   1/ 2
STINGRAY PT      1800   79 81  140/  4/  4 1022.9F   0
JAMESTOWN VA     1800   81 83  170/  6/  8   N/A
CHESAPEAKE LGHT  1700   76      50/ 11/ 11 1023.3F
CAPE HENRY BUOY  1728      79                N/A     3/11   2/11
1ST LANDING BUOY 1800      80              1022.5F   1/ 4
CAPE CHARLES BUO 1726      79                N/A     3/11   3/11
OFFSHORE WE BUOY 1711      78                N/A     3/11   3/11
64NM E OF VA BCH 1750   77 78   50/ 14/ 17 1021.9F   4/11   3/11
44100 DUCK FRF   1724      78                N/A     4/11   2/11
44056 DUCK FRF   1711      78                N/A     4/11   2/11
DIAMOND SHLS NC  1750   78 83   30/ 17/ 21 1020.3F   5/11   3/11
CAPE LOOKOUT NC  1800   80      40/ 18/ 21 1020.6F
$$



USA.gov is the U.S. government's official web portal to all federal, state and local government web resources and services.